Location: Champignolles
(47.0543°N, 4.5663°E)
Time: 08:10:20
(UTC+00:00)

Cosmos 923 Rocket - Pass Details

Date: 19 April 2021
Orbit: 759 x 785 km, 74.0° (Epoch: 13 May)

Event Time Altitude Azimuth Distance (km) Brightness Sun altitude
Rises 02:16:30 0° 334° (NNW) 3,231 7.5 -22.2°
Reaches altitude 10° 02:18:54 10° 331° (NNW) 2,302 6.7 -21.9°
Maximum altitude 02:24:01 60° 253° (WSW) 876 4.0 -21.3°
Enters shadow 02:25:21 45° 200° (SSW) 1,037 4.2 -21.2°
